sat.trackr.live / text

‹ back to catalog

STARLINK-35345

NORAD 65833 · 2025-221L

PAYLOAD ACTIVE UNKNOWN

§ Identity

Operator
Country
US
Launch date
2025-09-29
Launch site
AFWTR
Launch vehicle
Mass (kg)
RCS (m²)

Purposes: comms

External: N2YO · Heavens-Above · Gunter

§ Orbital elements

Epoch: 2026-09-20T23:24:04.497120Z

Period
93.85 min
Inclination
53.1591°
Eccentricity
0.0001305
Mean motion
15.34402081 rev/d
Perigee alt
461.8 km
Apogee alt
463.6 km
Semi-major
6,840.8 km
B*
3.1723e-4
RAAN
257.6378°
Arg perigee
52.8688°
Mean anomaly
307.2433°
Rev number
5,603

§ Raw data

STARLINK-353451 65833U 25221L   26263.97505205  .00010358  00000+0  31723-3 0  99942 65833  53.1591 257.6378 0001305  52.8688 307.2433 15.34402081 56039

JSON: /api/v1/satellites/65833 · /tle

For live sub-satellite position, see the globe view (requires WebGL).

§ Visibility from observer

Set your observer location to see the next 7 days of passes ≥ 10°. The values pass through the URL so the page stays shareable.

No JS? Fill the form by hand. The geolocation button needs JavaScript.